Home   Weather   Bad Kissingen   Past weeks

Flag for Germany Past Weather in Bad Kissingen, Bavaria, Germany — Yesterday and Last 2 Weeks

Now
57 °F

Clear.


Feels Like: 56 °F
Forecast: 54 / 68 °F
Wind: 6 mph from Southwest

Location: Illesheim

Current Time: Sep 29, 2016 at 5:34:06 AM

Latest Report: Sep 29, 2016 at 4:58 AM


Visibility: N/A

Pressure: 30.27 "Hg

Humidity: 77%

Dew Point: 50 °F

Location of Bad KissingenLocation

Past Weather in Bad Kissingen — Graph

°F

Bad Kissingen Temperature Yesterday

Maximum temperature yesterday: 71 °F (at 1:58 PM)
Minimum temperature yesterday: 43 °F (at 7:58 AM)
Average temperature yesterday: 58 °F

High & Low Weather Summary for the Past Weeks

 TemperatureHumidityPressure
High86 °F (Sep 15, 2:58 PM)100% (Sep 18, 12:03 AM)30.41 "Hg (Sep 18, 12:03 AM)
Low39 °F (Sep 22, 5:58 AM)30% (Sep 14, 3:58 PM)29.80 "Hg (Sep 15, 3:58 PM)
Average58 °F80%30.11 "Hg
* Reported Sep 14 3:58 AM — Sep 29 3:58 AM, Bad Kissingen, Weather by CustomWeather, © 2016

Note: Actual official high and low records may vary slightly from our data, if they occured in-between our weather recording intervals... More about our weather records

Advertising

Bad Kissingen Weather History for the Previous 24 Hours

Scroll right to see more
 ConditionsComfort  
Time TempWeatherWind HumidityBarometerVisibility
3:58 AM
Thu, Sep 29
59 °FClear.8 mph72%30.28 "HgN/A
2:58 AM60 °FClear.7 mph71%30.30 "HgN/A
1:58 AM60 °FClear.6 mph70%30.30 "HgN/A
12:58 AM61 °FClear.7 mph68%30.31 "HgN/A
11:58 PM
Wed, Sep 28
58 °FClear.3 mph74%30.33 "HgN/A
10:58 PM61 °FClear.6 mph69%30.34 "HgN/A
9:58 PM61 °FClear.7 mph68%30.34 "HgN/A
8:58 PM62 °FClear.8 mph67%30.36 "HgN/A
7:58 PM59 °FClear.6 mph70%30.36 "HgN/A
6:58 PM64 °FSunny.7 mph62%30.35 "HgN/A
5:58 PM67 °FSunny.17 mph53%30.34 "HgN/A
4:58 PM69 °FSunny.15 mph48%30.34 "HgN/A
3:58 PM71 °FSunny.20 mph47%30.32 "HgN/A
2:58 PM70 °FSunny.14 mph50%30.34 "HgN/A
1:58 PM71 °FSunny.17 mph50%30.35 "HgN/A
12:58 PM70 °FSunny.18 mph60%30.37 "HgN/A
11:58 AM68 °FSunny.13 mph64%30.39 "HgN/A
10:58 AM65 °FSunny.12 mph80%30.39 "HgN/A
9:58 AM59 °FSunny.7 mph100%30.39 "HgN/A
9:04 AM52 °FFog.No wind100%30.37 "Hg1 mi
8:58 AM50 °FCool.No wind100%30.39 "HgN/A
7:58 AM43 °FQuite cool.No wind100%30.41 "HgN/A
6:58 AM45 °FQuite cool.No wind100%30.38 "HgN/A
6:03 AM45 °FFog.No wind100%30.37 "Hg0 mi
5:58 AM46 °FCool.No wind100%30.37 "HgN/A
Weather by CustomWeather, © 2016

See weather overviewHow to use our weather pages